KA1STV Weather Reports


time (UTC)temp
C
wind
direction
speed
KPH
gust
KPH
rain 1hr
cm
rain 24hr
cm
rain mn
cm
humidity
%
barometer
mb
20260510225421 17 346 1.6 1.6 0.00 0.00 0.00 71 1012.1
20260510224916 17 328 1.6 1.6 0.00 0.00 0.00 71 1012.1
20260510224412 17 352 1.6 1.6 0.00 0.00 0.00 73 1012.0
20260510223904 17 355 0.0 1.6 0.00 0.00 0.00 73 1011.9
20260510223401 17 8 0.0 1.6 0.00 0.00 0.00 74 1011.9
20260510222859 17 311 1.6 3.2 0.00 0.00 0.00 74 1012.0
20260510222356 17 211 3.2 3.2 0.00 0.00 0.00 75 1011.9
20260510221850 17 347 1.6 1.6 0.00 0.00 0.00 76 1012.0
20260510221348 17 333 1.6 1.6 0.00 0.00 0.00 75 1011.8
20260510220844 17 349 1.6 1.6 0.00 0.00 0.00 77 1011.9
20260510220340 17 351 0.0 0.0 0.00 0.00 0.00 76 1011.7
20260510215836 17 344 3.2 3.2 0.00 0.00 0.00 75 1011.8
20260510215334 17 33 1.6 1.6 0.00 0.00 0.00 75 1011.7
20260510214832 17 343 3.2 3.2 0.00 0.00 0.00 74 1011.7
20260510214328 17 300 3.2 3.2 0.00 0.00 0.00 72 1011.8
20260510213825 17 298 4.8 4.8 0.00 0.00 0.00 73 1011.6
20260510213322 18 298 4.8 8.0 0.00 0.00 0.00 72 1011.5
20260510212818 18 323 3.2 4.8 0.00 0.00 0.00 71 1011.4
20260510212315 18 330 3.2 3.2 0.00 0.00 0.00 68 1011.2
20260510211812 18 325 3.2 4.8 0.00 0.00 0.00 69 1011.0
20260510211308 18 1 0.0 1.6 0.00 0.00 0.00 68 1011.1
20260510210804 19 353 0.0 1.6 0.00 0.00 0.00 65 1010.9
20260510210259 18 321 1.6 1.6 0.00 0.00 0.00 67 1011.0
20260510205758 18 273 3.2 8.0 0.00 0.00 0.00 65 1011.1
20260510205254 18 329 1.6 3.2 0.00 0.00 0.00 66 1010.9
20260510204750 18 321 3.2 3.2 0.00 0.00 0.00 64 1011.2
20260510204247 18 301 3.2 3.2 0.00 0.00 0.00 62 1010.8
20260510203743 19 287 4.8 4.8 0.00 0.00 0.00 61 1011.1
20260510203241 19 305 4.8 4.8 0.00 0.00 0.00 62 1011.0
20260510202741 20 276 4.8 8.0 0.00 0.00 0.00 61 1010.8
20260510202237 20 214 3.2 3.2 0.00 0.00 0.00 62 1010.3
20260510201734 20 178 1.6 1.6 0.00 0.00 0.00 63 1010.1
20260510201231 20 162 1.6 3.2 0.00 0.00 0.00 61 1010.5
20260510200727 21 4 0.0 1.6 0.00 0.00 0.00 60 1010.0
20260510200225 21 6 1.6 1.6 0.00 0.00 0.00 61 1010.0
20260510195721 21 356 0.0 0.0 0.00 0.00 0.00 62 1010.1
20260510195218 21 357 0.0 0.0 0.00 0.00 0.00 60 1010.2
20260510194717 21 353 1.6 1.6 0.00 0.00 0.00 62 1010.3
20260510194215 21 340 3.2 3.2 0.00 0.00 0.00 57 1010.3
20260510193709 21 337 3.2 3.2 0.00 0.00 0.00 58 1010.3
20260510193204 21 304 3.2 3.2 0.00 0.00 0.00 58 1010.7
20260510192701 21 254 4.8 4.8 0.00 0.00 0.00 58 1010.4
20260510192156 21 199 1.6 1.6 0.00 0.00 0.00 62 1010.8
20260510191652 20 46 0.0 1.6 0.00 0.00 0.00 75 1010.7
20260510191149 20 358 0.0 1.6 0.00 0.00 0.00 68 1011.0
20260510190646 20 26 1.6 1.6 0.00 0.00 0.00 70 1010.8
20260510190144 20 328 1.6 1.6 0.00 0.00 0.00 69 1010.4
20260510185640 20 53 1.6 1.6 0.00 0.00 0.00 72 1010.8
20260510185138 20 40 0.0 1.6 0.00 0.00 0.00 72 1010.7
20260510184635 20 0 0.0 0.0 0.00 0.00 0.00 73 1010.5
20260510184131 20 38 0.0 1.6 0.00 0.00 0.00 74 1010.7
20260510183626 20 45 1.6 1.6 0.00 0.00 0.00 74 1010.8
20260510183121 20 61 1.6 1.6 0.00 0.00 0.00 72 1011.0
20260510182619 20 136 8.0 9.7 0.00 0.00 0.00 72 1010.3
20260510182114 20 39 0.0 1.6 0.00 0.00 0.00 73 1010.2
20260510181611 20 50 1.6 3.2 0.00 0.00 0.00 72 1010.8
20260510181108 20 354 1.6 1.6 0.00 0.00 0.00 72 1010.9
20260510180604 19 139 4.8 9.7 0.00 0.00 0.00 72 1010.8
20260510175557 20 111 1.6 1.6 0.00 0.00 0.00 72 1010.4
20260510175053 20 187 1.6 1.6 0.00 0.00 0.00 72 1010.8
20260510174551 20 245 1.6 3.2 0.00 0.00 0.00 71 1010.7
20260510174048 20 198 3.2 3.2 0.00 0.00 0.00 71 1010.5
20260510173543 20 50 4.8 8.0 0.00 0.00 0.00 71 1010.3
20260510173040 19 193 1.6 3.2 0.00 0.00 0.00 73 1010.7
20260510172536 19 349 1.6 3.2 0.00 0.00 0.00 73 1010.9
20260510172033 20 161 3.2 4.8 0.00 0.00 0.00 71 1010.9
20260510171529 20 174 6.4 8.0 0.00 0.00 0.00 70 1010.7
20260510171027 20 348 1.6 1.6 0.00 0.00 0.00 71 1010.8
20260510170523 20 157 8.0 9.7 0.00 0.00 0.00 72 1010.7
20260510170020 20 115 3.2 4.8 0.00 0.00 0.00 73 1010.9
20260510165515 20 187 3.2 3.2 0.00 0.00 0.00 71 1010.9
20260510165012 20 218 3.2 3.2 0.00 0.00 0.00 71 1011.1
20260510164509 20 179 4.8 8.0 0.00 0.00 0.00 73 1011.1
20260510164005 20 26 0.0 1.6 0.00 0.00 0.00 72 1011.2
20260510163501 20 111 8.0 12.9 0.00 0.00 0.00 73 1011.3
20260510162956 19 267 1.6 3.2 0.00 0.00 0.00 73 1011.3
20260510162453 19 170 3.2 3.2 0.00 0.00 0.00 73 1011.4
20260510161949 18 47 3.2 4.8 0.00 0.00 0.00 75 1011.5
20260510161445 17 251 3.2 3.2 0.00 0.00 0.00 76 1011.5
20260510160942 18 295 3.2 3.2 0.00 0.00 0.00 77 1011.5
20260510160439 18 214 3.2 4.8 0.00 0.00 0.00 76 1011.4
20260510155937 18 157 3.2 4.8 0.00 0.00 0.00 76 1011.6
20260510155435 18 233 4.8 4.8 0.00 0.00 0.00 77 1011.5
20260510154931 18 55 0.0 1.6 0.00 0.00 0.00 77 1011.8
20260510154427 18 178 3.2 3.2 0.00 0.00 0.00 76 1011.8
20260510153926 18 139 8.0 11.3 0.00 0.00 0.00 77 1011.6
20260510153423 18 39 3.2 3.2 0.00 0.00 0.00 79 1012.0
20260510152919 17 96 11.3 12.9 0.00 0.00 0.00 79 1011.7
20260510152417 17 329 3.2 4.8 0.00 0.00 0.00 82 1011.9
20260510151913 16 29 0.0 1.6 0.00 0.00 0.00 81 1012.0
20260510151411 16 194 3.2 3.2 0.00 0.00 0.00 84 1012.1
20260510150907 16 299 1.6 3.2 0.00 0.00 0.00 84 1012.0
20260510150402 16 172 6.4 8.0 0.00 0.00 0.00 84 1011.9
20260510145858 16 206 3.2 4.8 0.00 0.00 0.00 84 1011.8
20260510145355 15 103 1.6 1.6 0.00 0.00 0.00 85 1011.9
20260510144852 15 256 1.6 3.2 0.00 0.00 0.00 87 1012.0
20260510144349 15 141 3.2 3.2 0.00 0.00 0.00 88 1011.9
20260510143843 15 141 4.8 8.0 0.00 0.00 0.00 88 1011.8
20260510143340 13 98 4.8 8.0 0.00 0.00 0.00 92 1012.1
20260510142837 13 217 3.2 3.2 0.00 0.00 0.00 94 1012.0
20260510142333 12 36 1.6 1.6 0.00 0.00 0.00 95 1012.1
20260510141830 13 98 4.8 4.8 0.00 0.00 0.00 98 1012.0
20260510141327 12 338 1.6 1.6 0.00 0.00 0.00 99 1011.9
20260510140825 12 208 0.0 1.6 0.00 0.00 0.00 99 1012.1
20260510140320 12 342 0.0 1.6 0.00 0.00 0.00 99 1011.9
20260510135813 12 203 1.6 3.2 0.00 0.00 0.00 99 1012.1
20260510135310 12 33 0.0 1.6 0.00 0.00 0.00 99 1012.1
20260510134808 12 55 1.6 1.6 0.00 0.00 0.00 99 1012.2
20260510134304 11 81 1.6 1.6 0.00 0.00 0.00 99 1011.9
20260510133800 11 29 0.0 0.0 0.00 0.00 0.00 99 1012.1
20260510133256 11 57 0.0 1.6 0.00 0.00 0.00 99 1012.2
20260510132752 11 44 0.0 1.6 0.00 0.00 0.00 99 1012.1
20260510132250 11 17 0.0 0.0 0.00 0.00 0.00 99 1012.1
20260510131747 12 43 1.6 1.6 0.00 0.00 0.00 99 1012.2
20260510131245 11 354 1.6 1.6 0.00 0.00 0.00 99 1012.1
20260510130740 11 29 0.0 0.0 0.00 0.00 0.00 99 1011.9
20260510130238 11 34 0.0 0.0 0.00 0.00 0.00 99 1011.9
20260510125734 11 50 1.6 1.6 0.00 0.00 0.00 99 1011.8
20260510125230 11 178 0.0 0.0 0.00 0.00 0.00 99 1012.0
20260510124727 11 356 0.0 0.0 0.00 0.00 0.00 99 1012.0
20260510124225 11 30 0.0 0.0 0.00 0.00 0.00 99 1011.7
20260510123719 11 34 0.0 0.0 0.00 0.00 0.00 99 1011.6
20260510123216 11 34 0.0 0.0 0.00 0.00 0.00 99 1012.0
20260510122712 11 1 0.0 0.0 0.00 0.00 0.00 99 1011.9
20260510122209 11 49 0.0 0.0 0.00 0.00 0.00 99 1011.6
20260510121705 11 24 1.6 1.6 0.00 0.00 0.00 99 1011.7
20260510121203 11 358 0.0 0.0 0.00 0.00 0.00 99 1011.8
20260510120659 10 18 0.0 0.0 0.00 0.00 0.00 99 1011.7
20260510120156 10 21 1.6 1.6 0.00 0.00 0.00 99 1011.7
20260510115652 10 24 0.0 0.0 0.00 0.00 0.00 99 1011.9
20260510115150 10 18 0.0 0.0 0.00 0.00 0.00 99 1011.5
20260510114645 10 351 0.0 1.6 0.00 0.00 0.00 99 1011.6
20260510114142 10 12 0.0 0.0 0.00 0.00 0.00 99 1011.7
20260510113637 10 12 0.0 0.0 0.00 0.00 0.00 99 1011.7
20260510113134 10 12 0.0 0.0 0.00 0.00 0.00 99 1011.7
20260510112631 10 14 0.0 0.0 0.00 0.00 0.00 99 1011.7
20260510112128 10 14 0.0 0.0 0.00 0.00 0.00 99 1011.7
20260510111624 10 15 0.0 0.0 0.00 0.00 0.00 99 1011.7
20260510111120 10 14 0.0 0.0 0.00 0.00 0.00 99 1011.7
20260510110616 10 14 0.0 0.0 0.00 0.00 0.00 99 1011.8
20260510110113 10 19 0.0 0.0 0.00 0.00 0.00 99 1011.5
20260510105609 10 4 0.0 0.0 0.00 0.00 0.00 99 1011.4
20260510105103 10 4 0.0 0.0 0.00 0.00 0.00 99 1011.5
20260510104601 10 3 0.0 0.0 0.00 0.00 0.00 99 1011.3
20260510104057 10 3 0.0 0.0 0.00 0.00 0.00 99 1011.5
20260510103554 10 22 0.0 0.0 0.00 0.00 0.00 99 1011.3
20260510103050 10 341 0.0 1.6 0.00 0.00 0.00 99 1011.2
20260510102545 10 10 0.0 0.0 0.00 0.00 0.00 99 1011.0
20260510102042 10 10 0.0 0.0 0.00 0.00 0.00 99 1011.1
20260510101540 10 10 0.0 0.0 0.00 0.00 0.00 99 1011.0
20260510101038 10 13 0.0 1.6 0.00 0.00 0.00 99 1010.9
20260510100534 10 10 0.0 0.0 0.00 0.00 0.00 99 1011.0
20260510100031 10 5 0.0 0.0 0.00 0.00 0.00 99 1010.8
20260510095527 10 354 0.0 1.6 0.00 0.00 0.00 99 1010.8
20260510095026 10 8 0.0 0.0 0.00 0.00 0.00 99 1010.2
20260510094521 10 29 0.0 0.0 0.00 0.00 0.00 99 1010.1
20260510094017 10 297 1.6 1.6 0.00 0.00 0.00 99 1010.2
20260510093512 10 9 0.0 0.0 0.00 0.00 0.00 99 1010.2
20260510093010 10 31 0.0 0.0 0.00 0.00 0.00 99 1010.2
20260510092507 10 28 0.0 1.6 0.00 0.00 0.00 99 1010.4
20260510092006 10 9 0.0 0.0 0.00 0.00 0.00 99 1010.2
20260510091503 10 59 1.6 1.6 0.00 0.00 0.00 99 1010.3
20260510090959 10 6 0.0 0.0 0.00 0.00 0.00 99 1010.8
20260510090456 10 1 0.0 1.6 0.00 0.00 0.00 99 1010.4
20260510085952 10 28 0.0 0.0 0.00 0.00 0.00 99 1010.7
20260510085447 10 28 0.0 0.0 0.00 0.00 0.00 99 1010.4
20260510084943 10 28 0.0 0.0 0.00 0.00 0.00 99 1010.7
20260510084440 10 12 0.0 0.0 0.00 0.00 0.00 99 1010.5
20260510083937 10 10 0.0 0.0 0.00 0.00 0.00 99 1011.0
20260510083433 10 19 0.0 0.0 0.00 0.00 0.00 99 1010.8
20260510082928 10 17 0.0 0.0 0.00 0.00 0.00 99 1010.8
20260510082427 10 17 0.0 0.0 0.00 0.00 0.00 99 1010.5
20260510081925 10 18 0.0 0.0 0.00 0.00 0.00 99 1010.9
20260510081421 10 17 0.0 0.0 0.00 0.00 0.00 99 1011.1
20260510080918 10 25 0.0 0.0 0.00 0.00 0.00 99 1010.8
20260510080417 10 25 0.0 0.0 0.00 0.00 0.00 99 1010.9
20260510075914 10 36 0.0 1.6 0.00 0.00 0.00 99 1011.2
20260510075412 10 359 0.0 0.0 0.00 0.00 0.00 99 1011.0
20260510074908 10 358 0.0 0.0 0.00 0.00 0.00 99 1011.0
20260510074406 10 358 0.0 0.0 0.00 0.00 0.00 99 1011.1
20260510073902 10 359 0.0 0.0 0.00 0.00 0.00 99 1011.0
20260510073357 10 0 0.0 0.0 0.00 0.00 0.00 99 1011.0
20260510072854 10 0 0.0 0.0 0.00 0.00 0.00 99 1010.8
20260510072351 10 1 0.0 0.0 0.00 0.00 0.00 99 1010.7
20260510071847 10 1 0.0 0.0 0.00 0.00 0.00 99 1010.4
20260510071343 10 359 0.0 0.0 0.00 0.00 0.00 99 1010.4
20260510070842 10 4 0.0 0.0 0.00 0.00 0.00 99 1010.3
20260510070338 10 27 0.0 0.0 0.00 0.00 0.00 99 1010.1
20260510065833 10 26 0.0 0.0 0.00 0.00 0.00 99 1010.3
20260510065330 10 24 0.0 0.0 0.00 0.00 0.00 99 1010.3
20260510064827 10 24 0.0 0.0 0.00 0.00 0.00 99 1010.4
20260510064325 10 25 0.0 0.0 0.00 0.00 0.00 99 1010.4
20260510063821 10 33 0.0 0.0 0.00 0.00 0.00 99 1010.3
20260510063317 10 8 0.0 0.0 0.00 0.00 0.00 99 1010.3
20260510062814 10 9 0.0 0.0 0.00 0.00 0.00 99 1010.7
20260510062310 10 11 0.0 0.0 0.00 0.00 0.00 99 1010.5
20260510061805 10 11 0.0 0.0 0.00 0.00 0.00 99 1010.2
20260510061303 10 12 0.0 0.0 0.00 0.00 0.00 99 1010.3
20260510060758 10 12 0.0 0.0 0.00 0.00 0.00 99 1010.3
20260510060256 10 3 0.0 0.0 0.00 0.00 0.00 99 1010.2
20260510055752 10 342 1.6 1.6 0.00 0.00 0.00 99 1010.3
20260510055250 10 341 1.6 1.6 0.00 0.00 0.00 99 1010.0
20260510054750 10 347 0.0 0.0 0.00 0.00 0.00 99 1010.0
20260510054247 10 348 0.0 0.0 0.00 0.00 0.00 99 1010.3
20260510053746 10 348 1.6 1.6 0.00 0.00 0.00 99 1010.1
20260510053242 10 347 0.0 0.0 0.00 0.00 0.00 99 1010.4
20260510052738 10 336 1.6 1.6 0.00 0.00 0.00 99 1010.5
20260510052234 10 349 0.0 0.0 0.00 0.00 0.00 99 1010.5
20260510051730 10 350 0.0 0.0 0.00 0.00 0.00 99 1010.8
20260510051227 10 291 1.6 1.6 0.00 0.00 0.00 99 1010.7
20260510050724 10 338 1.6 1.6 0.00 0.00 0.00 99 1010.5
20260510050221 10 345 0.0 0.0 0.00 0.00 0.00 99 1010.3
20260510045718 10 345 0.0 0.0 0.00 0.00 0.00 99 1010.4
20260510045215 10 345 0.0 0.0 0.00 0.00 0.00 99 1010.3
20260510044711 10 344 0.0 0.0 0.00 0.00 0.00 99 1010.0
20260510044209 10 354 0.0 0.0 0.00 0.00 0.00 99 1010.3
20260510043704 10 358 0.0 1.6 0.00 0.00 0.00 99 1010.3
20260510043201 10 1 0.0 0.0 0.00 0.00 0.00 99 1010.1
20260510042658 10 3 0.0 0.0 0.00 0.00 0.00 99 1010.5
20260510042154 10 355 0.0 0.0 0.00 0.00 0.00 99 1010.7
20260510041651 10 357 0.0 0.0 0.00 0.00 0.00 99 1010.5
20260510041149 10 355 0.0 0.0 0.00 0.00 0.00 99 1010.7
20260510040646 10 0 0.0 0.0 0.00 0.00 0.00 99 1010.4
20260510040142 10 16 0.0 0.0 0.00 1.14 1.14 99 1010.4
20260510035638 9 15 0.0 0.0 0.00 1.14 1.14 99 1010.7
20260510035133 9 26 0.0 0.0 0.00 1.14 1.14 99 1010.7
20260510034630 9 35 0.0 0.0 0.00 1.14 1.14 99 1010.5
20260510034127 10 53 0.0 0.0 0.00 1.14 1.14 99 1010.7
20260510033623 10 41 1.6 1.6 0.00 1.14 1.14 99 1010.7
20260510033121 10 40 1.6 1.6 0.00 1.14 1.14 99 1010.4
20260510032617 10 59 1.6 3.2 0.00 1.14 1.14 99 1010.5
20260510032113 10 3 0.0 0.0 0.00 1.14 1.14 99 1010.5
20260510031608 10 3 0.0 0.0 0.00 1.14 1.14 99 1010.3
20260510031105 10 3 0.0 0.0 0.00 1.14 1.14 99 1010.9
20260510030600 9 3 0.0 0.0 0.00 1.14 1.14 99 1010.8
20260510030057 9 18 0.0 0.0 0.00 1.14 1.14 99 1010.5
20260510025554 9 19 0.0 0.0 0.00 1.14 1.14 99 1010.4
20260510025052 9 20 0.0 0.0 0.00 1.14 1.14 99 1010.7
20260510024548 9 20 0.0 0.0 0.00 1.14 1.14 99 1010.5
20260510024045 9 20 0.0 0.0 0.00 1.14 1.14 99 1010.7
20260510023541 9 20 0.0 0.0 0.00 1.14 1.14 99 1010.7
20260510023039 9 28 0.0 0.0 0.00 1.14 1.14 99 1010.5
20260510022537 9 31 0.0 0.0 0.00 1.14 1.14 99 1010.3
20260510022032 9 28 0.0 0.0 0.00 1.14 1.14 99 1010.2
20260510021529 10 61 1.6 3.2 0.00 1.14 1.14 99 1010.5
20260510021026 10 21 0.0 0.0 0.00 1.14 1.14 99 1010.2
20260510020521 10 51 1.6 1.6 0.00 1.14 1.14 99 1010.8
20260510020016 10 33 0.0 0.0 0.00 1.14 1.14 99 1010.9
20260510015512 10 33 0.0 0.0 0.00 1.14 1.14 99 1011.0
20260510015008 10 33 0.0 0.0 0.00 1.14 1.14 99 1011.2
20260510014505 10 33 0.0 0.0 0.00 1.14 1.14 99 1011.1
20260510014002 10 33 0.0 0.0 0.00 1.14 1.14 99 1011.1
20260510013456 10 33 0.0 0.0 0.00 1.14 1.14 99 1011.1
20260510012953 9 33 0.0 0.0 0.00 1.14 1.14 99 1011.1
20260510012447 9 33 0.0 0.0 0.00 1.14 1.14 99 1011.3
20260510011942 9 33 0.0 0.0 0.00 1.14 1.14 99 1011.1
20260510011437 9 33 1.6 1.6 0.00 1.14 1.14 99 1011.0
20260510010934 9 33 0.0 0.0 0.00 1.14 1.14 99 1010.9
20260510010432 9 33 0.0 0.0 0.00 1.14 1.14 99 1010.8
20260510005928 9 33 0.0 0.0 0.00 1.14 1.14 99 1010.7
20260510005424 9 33 0.0 0.0 0.00 1.14 1.14 99 1010.4
20260510004921 9 33 0.0 0.0 0.00 1.14 1.14 99 1010.3
20260510004419 9 33 0.0 0.0 0.00 1.14 1.14 99 1010.3
20260510003916 9 33 0.0 0.0 0.00 1.14 1.14 99 1010.1
20260510003413 9 33 0.0 0.0 0.00 1.14 1.14 99 1010.2
20260510002913 9 33 0.0 0.0 0.00 1.14 1.14 99 1010.3
20260510002410 9 33 0.0 0.0 0.00 1.14 1.14 99 1010.0
20260510001906 9 33 0.0 0.0 0.00 1.14 1.14 99 1010.2
20260510001404 9 33 0.0 0.0 0.00 1.14 1.14 99 1010.3
20260510000900 9 34 0.0 0.0 0.00 1.14 1.14 99 1010.2
20260510000357 9 34 0.0 0.0 0.00 1.14 1.14 99 1010.2
20260509235853 9 38 0.0 0.0 0.00 1.14 1.14 99 1010.4
20260509235350 9 38 0.0 0.0 0.00 1.14 1.14 99 1010.3
20260509234847 9 37 0.0 0.0 0.00 1.14 1.14 99 1010.2
20260509234344 9 35 1.6 1.6 0.00 1.14 1.14 99 1010.2
20260509233842 9 41 0.0 0.0 0.00 1.14 1.14 99 1010.3
20260509233339 9 43 0.0 1.6 0.00 1.14 1.14 99 1010.2
20260509232834 9 28 0.0 0.0 0.00 1.14 1.14 99 1010.4
20260509232333 9 28 0.0 0.0 0.00 1.14 1.14 99 1010.5
20260509231828 9 28 0.0 0.0 0.00 1.14 1.14 99 1010.1
20260509231326 9 30 0.0 0.0 0.00 1.14 1.14 99 1010.3
20260509230823 9 63 1.6 1.6 0.00 1.14 1.14 99 1010.1
20260509230320 9 30 0.0 0.0 0.13 1.14 1.14 99 1009.9
20260509225815 9 25 0.0 0.0 0.13 1.14 1.14 99 1009.9